Regional Weather Roundup
Issued by NWS

Home | Current Version | Previous Version | Text Only | Print | Product List | Glossary Off
Versions: 1 2 3 4 5 6 7 8 9 10 11 12 13 14 15 16 17 18 19 20 21 22 23 24 25 26 27 28 29 30 31 32 33 34 35 36 37 38 39 40 41 42 43 44 45 46 47 48 49 50

000
ASUS43 KBIS 242110
RWRND

NORTH DAKOTA REGIONAL WEATHER ROUNDUP
NATIONAL WEATHER SERVICE BISMARCK ND
400 PM CDT FRI MAR 24 2017

NOTE: "FAIR" INDICATES FEW OR NO CLOUDS BELOW 12,000 FEET WITH NO
SIGNIFICANT WEATHER AND/OR OBSTRUCTIONS TO VISIBILITY.


NDZ001>003-009>011-017-242200-
NORTHWEST NORTH DAKOTA

CITY           SKY/WX    TMP DP  RH WIND       PRES   REMARKS
WILLISTON      FAIR      57  32  38 SE14      30.06F
MINOT          FAIR      40  29  64 E12       30.16F
MINOT AFB      SUNNY     36  29  74 SE13      30.15F
$$

NDZ018>021-031>035-040>046-242200-
SOUTHWEST NORTH DAKOTA

CITY           SKY/WX    TMP DP  RH WIND       PRES   REMARKS
BISMARCK       FAIR      47  35  63 E9        30.16F
DICKINSON      FAIR      56  33  42 S7        30.05F
GARRISON         N/A     42  32  67 E8        30.14F
HETTINGER ARPT SUNNY     56  34  43 E6        30.09F
$$

NDZ004>008-012>016-024-026-027-054-242200-
NORTHEAST NORTH DAKOTA

CITY           SKY/WX    TMP DP  RH WIND       PRES   REMARKS
GRAND FORKS    CLOUDY    36  28  73 NE12      30.23R
GRND FRKS AFB  CLOUDY    34  28  78 NE9       30.23S
DEVILS LAKE    CLOUDY    33  26  75 NE8       30.21F
$$

NDZ022-023-025-028>030-036>039-047>053-242200-
SOUTHEAST NORTH DAKOTA

CITY           SKY/WX    TMP DP  RH WIND       PRES   REMARKS
FARGO          CLOUDY    39  32  76 N20       30.18S
JAMESTOWN      CLOUDY    36  30  79 N10       30.18S
$$





USA.gov is the U.S. government's official web portal to all federal, state and local government web resources and services.